[[{"header":{"parameterUnit":"m.s-1","parameterCategory":2,"la1":30.2992,"la2":30.254,"lo1":-89.0895,"lo2":-89.0443,"dy":0.0025,"dx":0.0025,"nx":19,"ny":19,"refTime":"2026-04-18T09:00:00:Z","depth":"0","parameterNumber":2,"parameterNumberName":"U-component_of_CURRENTS"},"data":[0,0,0,-0.1698,-0.17,-0.1758,-0.1759,-0.1775,-0.1775,0,0,0,0,0,0,0,0,0,0,0,-0.1669,-0.1669,-0.1698,-0.17,-0.1758,-0.1759,-0.1775,-0.1775,0,0,0,0,0,0,0,0,0,0,0,-0.1669,-0.1669,-0.167,-0.17,-0.1758,-0.1759,-0.1775,-0.1743,0,0,0,0,0,0,0,0,0,0,-0.1692,-0.167,-0.1669,-0.167,-0.1701,-0.1758,-0.1759,-0.1742,-0.1745,-0.1735,0,-0.1748,0,-0.177,-0.1776,-0.1776,0,0,0,-0.1689,-0.1667,-0.1694,-0.167,-0.1701,-0.1758,-0.1729,-0.1744,-0.1747,-0.1739,-0.1749,-0.175,-0.177,-0.1776,-0.1776,-0.1782,-0.1782,0,0,-0.1686,-0.1667,-0.1692,-0.1697,-0.1721,-0.1727,-0.1731,-0.1746,-0.1743,-0.1749,-0.1751,-0.177,-0.1776,-0.1776,-0.1782,-0.1782,0,0,0,-0.1684,-0.1664,-0.1692,-0.1695,-0.1715,-0.1729,-0.1733,-0.1742,-0.1755,-0.1751,-0.1771,-0.1776,-0.1776,-0.1782,-0.1782,-0.1805,0,0,0,-0.1681,-0.1664,-0.169,-0.1678,-0.1715,-0.1736,-0.1729,-0.1754,-0.1757,-0.1771,-0.1776,-0.1776,-0.1782,-0.1782,-0.1805,-0.1832,0,0,0,-0.1665,-0.1662,-0.1673,-0.1677,-0.171,-0.1737,-0.175,-0.1755,-0.1769,-0.1776,-0.1776,-0.1782,-0.1782,-0.1804,-0.1831,-0.19,0,0,0,-0.1638,-0.1655,-0.1673,-0.1699,-0.1709,-0.1757,-0.175,-0.1778,-0.1787,-0.1776,-0.1782,-0.1782,-0.1804,-0.183,-0.1898,-0.1943,-0.1956,0,0,-0.1645,-0.1655,-0.1673,-0.1692,-0.1736,-0.1748,-0.178,-0.1788,-0.1779,-0.1771,-0.1772,-0.1805,-0.183,-0.19,-0.194,-0.1953,0,0,0,-0.1668,-0.1675,-0.1694,-0.1724,-0.1764,-0.1791,-0.1801,-0.1806,-0.1804,-0.1787,-0.1797,-0.1813,-0.1856,-0.1878,-0.1888,-0.1948,-0.1782,-0.1782,-0.1782,-0.163,-0.1667,-0.1693,-0.1737,-0.1769,-0.1814,-0.184,-0.1841,-0.182,-0.182,-0.1825,-0.1886,-0.1907,-0.1915,-0.1975,-0.1809,-0.1809,-0.1809,-0.1809,-0.1625,-0.1633,-0.1684,-0.1717,-0.1764,-0.1788,-0.1852,-0.1857,-0.1897,-0.1848,-0.1889,-0.1893,-0.1928,-0.1987,-0.181,-0.181,-0.181,-0.181,-0.181,-0.1581,-0.159,-0.1618,-0.1665,-0.1713,-0.1771,-0.1855,-0.1892,-0.1922,-0.1959,-0.2005,-0.2004,-0.2067,-0.1979,-0.198,-0.198,-0.1981,-0.1981,-0.1981,-0.1514,-0.1548,-0.1556,-0.1615,-0.1646,-0.1723,-0.1857,-0.1935,-0.2034,-0.2052,-0.2052,-0.2096,-0.1939,-0.1945,-0.1988,-0.1986,-0.1986,-0.1985,-0.1985,-0.1445,-0.1463,-0.1479,-0.1506,-0.1598,-0.1684,-0.1843,-0.2047,-0.2142,-0.2204,-0.2248,-0.2117,-0.2128,-0.2119,-0.2129,-0.2217,-0.2217,-0.2217,-0.2217,-0.138,-0.1398,-0.1408,-0.1448,-0.1531,-0.1662,-0.1865,-0.2093,-0.2296,-0.2369,-0.2377,-0.2337,-0.2325,-0.2344,-0.233,-0.2343,-0.2484,-0.2485,-0.2485,-0.1321,-0.1344,-0.1329,-0.1389,-0.1487,-0.164,-0.1834,-0.2166,-0.2446,-0.25,-0.2456,-0.2445,-0.2384,-0.2361,-0.2384,-0.236,-0.2377,0,0]},{"header":{"parameterUnit":"m.s-1","parameterCategory":2,"la1":30.2992,"la2":30.254,"lo1":-89.0895,"lo2":-89.0443,"dy":0.0025,"dx":0.0025,"nx":19,"ny":19,"refTime":"2026-04-18T09:00:00:Z","depth":"0","parameterNumber":3,"parameterNumberName":"V-component_of_CURRENTS"},"data":[0,0,0,-0.0363,-0.0362,-0.0281,-0.028,-0.0133,-0.0132,0,0,0,0,0,0,0,0,0,0,0,-0.0391,-0.0391,-0.0363,-0.0362,-0.0281,-0.028,-0.0133,-0.0132,0,0,0,0,0,0,0,0,0,0,0,-0.0391,-0.0391,-0.0391,-0.0362,-0.0281,-0.028,-0.0133,-0.0201,0,0,0,0,0,0,0,0,0,0,-0.0283,-0.0323,-0.0391,-0.039,-0.0361,-0.0281,-0.028,-0.0204,-0.0197,-0.0163,0,-0.0163,0,-0.0151,-0.0122,-0.0122,0,0,0,-0.0343,-0.033,-0.031,-0.039,-0.0361,-0.0281,-0.0312,-0.02,-0.0191,-0.0153,-0.0161,-0.0156,-0.0149,-0.0122,-0.0121,-0.0004,-0.0004,0,0,-0.0348,-0.0367,-0.0317,-0.0305,-0.0355,-0.0315,-0.031,-0.0195,-0.019,-0.0161,-0.0153,-0.0146,-0.0121,-0.012,-0.0004,-0.0004,0,0,0,-0.0373,-0.037,-0.0354,-0.0311,-0.0304,-0.0313,-0.0307,-0.0195,-0.0191,-0.0151,-0.0144,-0.012,-0.0118,-0.0005,-0.0004,-0.0079,0,0,0,-0.0375,-0.0387,-0.0357,-0.0366,-0.0307,-0.0255,-0.0309,-0.0199,-0.0185,-0.0145,-0.012,-0.0117,-0.0005,-0.0004,-0.0077,-0.0127,0,0,0,-0.0392,-0.0388,-0.0384,-0.0368,-0.0341,-0.0257,-0.0245,-0.0195,-0.0182,-0.0122,-0.0117,-0.0005,-0.0004,-0.0076,-0.0124,-0.0133,0,0,0,-0.0405,-0.042,-0.0385,-0.0395,-0.0342,-0.0304,-0.0246,-0.0206,-0.0161,-0.0119,-0.0005,-0.0004,-0.0076,-0.0122,-0.0131,-0.0183,-0.0195,0,0,-0.0436,-0.0424,-0.043,-0.0397,-0.039,-0.0313,-0.0276,-0.0198,-0.0135,-0.0037,-0.0034,-0.0078,-0.0124,-0.0132,-0.0147,-0.0161,0,0,0,-0.0447,-0.0454,-0.0444,-0.043,-0.0385,-0.0336,-0.0249,-0.02,-0.0115,-0.0108,-0.0044,-0.007,-0.0074,-0.01,-0.011,0.0117,-0.0001,-0.0001,-0.0001,-0.0507,-0.0486,-0.0497,-0.0462,-0.043,-0.034,-0.0292,-0.02,-0.0135,-0.0106,-0.0105,-0.0131,-0.0158,-0.0166,0.007,-0.0066,-0.0066,-0.0066,-0.0066,-0.0564,-0.0575,-0.0539,-0.0543,-0.0481,-0.0436,-0.032,-0.0266,-0.0184,-0.0131,-0.013,-0.0146,-0.0183,0.0074,-0.007,-0.007,-0.0069,-0.0069,-0.0068,-0.0611,-0.0615,-0.0612,-0.0611,-0.0586,-0.0505,-0.0486,-0.0376,-0.0265,-0.0258,-0.0249,-0.0248,-0.0045,-0.0245,-0.0246,-0.0246,-0.0246,-0.0246,-0.0247,-0.0663,-0.066,-0.0693,-0.0684,-0.0695,-0.0679,-0.0581,-0.0534,-0.0424,-0.0338,-0.0338,-0.0019,-0.0185,-0.0203,-0.0251,-0.025,-0.0249,-0.0249,-0.0249,-0.0722,-0.0722,-0.0781,-0.0806,-0.0845,-0.0909,-0.0801,-0.0709,-0.061,-0.0565,-0.0136,-0.0363,-0.0343,-0.0334,-0.0354,-0.0437,-0.0437,-0.0437,-0.0437,-0.0764,-0.0767,-0.0869,-0.0943,-0.1007,-0.102,-0.1089,-0.0926,-0.0482,-0.0223,-0.0081,-0.0015,-0.0018,0.0028,0.003,0.0021,0.0035,0.0036,0.0037,-0.0802,-0.0833,-0.0925,-0.1004,-0.1092,-0.1169,-0.1274,-0.1111,-0.0355,0.0086,0.0251,0.0231,0.0362,0.0339,0.0438,0.0421,0.0415,0,0]}],[{"header":{"parameterUnit":"m.s-1","parameterCategory":2,"la1":30.2992,"la2":30.254,"lo1":-89.0895,"lo2":-89.0443,"dy":0.0025,"dx":0.0025,"nx":19,"ny":19,"refTime":"2026-04-18T09:00:00:Z","depth":"2","parameterNumber":2,"parameterNumberName":"U-component_of_CURRENTS"},"data":[0,0,0,-0.1628,-0.163,-0.1694,-0.1694,-0.1715,-0.1715,0,0,0,0,0,0,0,0,0,0,0,-0.1598,-0.1598,-0.1628,-0.163,-0.1694,-0.1694,-0.1715,-0.1715,0,0,0,0,0,0,0,0,0,0,0,-0.1597,-0.1598,-0.1599,-0.163,-0.1694,-0.1694,-0.1715,-0.1679,0,0,0,0,0,0,0,0,0,0,-0.1624,-0.1602,-0.1598,-0.1599,-0.163,-0.1694,-0.1694,-0.1678,-0.1682,-0.167,0,-0.1683,0,-0.1705,-0.1715,-0.1715,0,0,0,-0.1622,-0.1599,-0.1625,-0.1599,-0.1631,-0.1694,-0.1663,-0.1681,-0.1684,-0.1674,-0.1684,-0.1685,-0.1706,-0.1715,-0.1715,-0.1719,-0.1719,0,0,-0.1618,-0.16,-0.1623,-0.1628,-0.1651,-0.1661,-0.1665,-0.1683,-0.1681,-0.1684,-0.1686,-0.1706,-0.1715,-0.1715,-0.1719,-0.1719,0,0,0,-0.1613,-0.1597,-0.1623,-0.1626,-0.1646,-0.1663,-0.1668,-0.168,-0.1692,-0.1687,-0.1706,-0.1715,-0.1716,-0.1719,-0.1719,-0.1745,0,0,0,-0.1611,-0.1595,-0.1622,-0.161,-0.1647,-0.1672,-0.1664,-0.169,-0.1694,-0.1706,-0.1715,-0.1716,-0.1719,-0.1719,-0.1744,-0.1771,0,0,0,-0.1594,-0.1593,-0.1604,-0.1609,-0.1643,-0.1673,-0.1685,-0.1692,-0.1706,-0.1715,-0.1716,-0.1719,-0.1719,-0.1743,-0.177,-0.1838,0,0,0,-0.1568,-0.1585,-0.1603,-0.163,-0.1642,-0.169,-0.1685,-0.1715,-0.1726,-0.1716,-0.1719,-0.1719,-0.1743,-0.1769,-0.1836,-0.1867,-0.1878,0,0,-0.1577,-0.1586,-0.1604,-0.1622,-0.1666,-0.168,-0.1714,-0.1725,-0.1716,-0.1707,-0.1708,-0.1744,-0.1769,-0.1837,-0.1861,-0.1873,0,0,0,-0.1599,-0.1606,-0.1625,-0.1654,-0.1693,-0.1723,-0.1735,-0.1741,-0.1742,-0.1724,-0.1735,-0.175,-0.1793,-0.1806,-0.1815,-0.1718,-0.1718,-0.1718,-0.1718,-0.1566,-0.1601,-0.1626,-0.1668,-0.1701,-0.1746,-0.1773,-0.1776,-0.1756,-0.1757,-0.1764,-0.1823,-0.1835,-0.1843,-0.1746,-0.1746,-0.1746,-0.1747,-0.1747,-0.1562,-0.157,-0.1619,-0.1652,-0.1698,-0.1724,-0.1787,-0.1793,-0.1834,-0.1786,-0.1826,-0.1822,-0.1855,-0.1748,-0.1748,-0.1748,-0.1748,-0.1748,-0.1747,-0.1521,-0.1529,-0.1556,-0.1603,-0.1652,-0.171,-0.1793,-0.183,-0.186,-0.1897,-0.1932,-0.1932,-0.1872,-0.1918,-0.1918,-0.1918,-0.1919,-0.1919,-0.1919,-0.1455,-0.1489,-0.1498,-0.1557,-0.1588,-0.1664,-0.1797,-0.1872,-0.1965,-0.1979,-0.198,-0.1882,-0.1876,-0.1883,-0.1926,-0.1925,-0.1924,-0.1923,-0.1923,-0.1388,-0.1406,-0.1424,-0.1451,-0.1541,-0.1615,-0.1778,-0.1972,-0.2066,-0.2123,-0.2042,-0.2037,-0.2045,-0.2037,-0.2047,-0.213,-0.213,-0.213,-0.213,-0.1325,-0.1342,-0.1355,-0.1393,-0.1473,-0.1589,-0.1749,-0.1898,-0.2035,-0.2035,-0.2038,-0.1972,-0.1968,-0.1967,-0.196,-0.1966,-0.2028,-0.2028,-0.2027,-0.1267,-0.129,-0.1276,-0.1335,-0.143,-0.1556,-0.1667,-0.1758,-0.1868,-0.2015,-0.1934,-0.214,-0.2051,-0.204,-0.2042,-0.203,-0.2041,0,0]},{"header":{"parameterUnit":"m.s-1","parameterCategory":2,"la1":30.2992,"la2":30.254,"lo1":-89.0895,"lo2":-89.0443,"dy":0.0025,"dx":0.0025,"nx":19,"ny":19,"refTime":"2026-04-18T09:00:00:Z","depth":"2","parameterNumber":3,"parameterNumberName":"V-component_of_CURRENTS"},"data":[0,0,0,-0.0273,-0.0272,-0.0193,-0.0192,-0.0048,-0.0047,0,0,0,0,0,0,0,0,0,0,0,-0.03,-0.03,-0.0273,-0.0272,-0.0193,-0.0192,-0.0048,-0.0047,0,0,0,0,0,0,0,0,0,0,0,-0.03,-0.03,-0.03,-0.0271,-0.0193,-0.0192,-0.0048,-0.0114,0,0,0,0,0,0,0,0,0,0,-0.0195,-0.0235,-0.03,-0.03,-0.0271,-0.0193,-0.0192,-0.0118,-0.011,-0.0077,0,-0.0077,0,-0.0065,-0.0038,-0.0037,0,0,0,-0.0254,-0.0241,-0.0221,-0.03,-0.0271,-0.0193,-0.0223,-0.0114,-0.0105,-0.0066,-0.0075,-0.007,-0.0062,-0.0037,-0.0036,0.0077,0.0078,0,0,-0.0258,-0.0279,-0.0228,-0.0216,-0.0265,-0.0226,-0.0221,-0.0109,-0.0105,-0.0074,-0.0066,-0.006,-0.0036,-0.0035,0.0077,0.0077,0,0,0,-0.0283,-0.0282,-0.0265,-0.0222,-0.0215,-0.0224,-0.0219,-0.0109,-0.0105,-0.0065,-0.0058,-0.0035,-0.0033,0.0077,0.0077,0.0001,0,0,0,-0.0284,-0.0297,-0.0267,-0.0277,-0.0218,-0.0168,-0.0222,-0.0112,-0.0099,-0.0059,-0.0035,-0.0032,0.0077,0.0077,0.0002,-0.0047,0,0,0,-0.0301,-0.0299,-0.0295,-0.0279,-0.0253,-0.017,-0.0158,-0.0109,-0.0096,-0.0037,-0.0032,0.0076,0.0077,0.0003,-0.0044,-0.0053,0,0,0,-0.0316,-0.0332,-0.0296,-0.0306,-0.0254,-0.0216,-0.0158,-0.0119,-0.0076,-0.0034,0.0077,0.0077,0.0004,-0.0042,-0.0051,-0.0099,-0.0112,0,0,-0.0348,-0.0336,-0.0342,-0.0308,-0.03,-0.0224,-0.019,-0.0113,-0.0051,0.0045,0.0048,0.0002,-0.0044,-0.0052,-0.0067,-0.0081,0,0,0,-0.0359,-0.0366,-0.0356,-0.0342,-0.0297,-0.025,-0.0165,-0.0116,-0.0034,-0.0025,0.0035,0.0009,0.0005,-0.0018,-0.0029,0.008,0.008,0.008,0.008,-0.0424,-0.0401,-0.0412,-0.0376,-0.0345,-0.0256,-0.021,-0.012,-0.0055,-0.0028,-0.0029,-0.0056,-0.0081,-0.009,0.001,0.0009,0.0009,0.0009,0.0009,-0.0482,-0.0493,-0.0457,-0.0461,-0.0399,-0.0357,-0.0242,-0.0189,-0.0109,-0.0057,-0.0056,-0.0068,-0.0106,0.0003,0.0004,0.0005,0.0006,0.0006,0.0006,-0.0531,-0.0536,-0.0532,-0.0532,-0.0509,-0.0428,-0.041,-0.0302,-0.0192,-0.0185,-0.0174,-0.0173,-0.012,-0.0173,-0.0173,-0.0174,-0.0174,-0.0174,-0.0174,-0.0586,-0.0583,-0.0616,-0.0607,-0.0618,-0.0603,-0.0506,-0.0459,-0.0348,-0.0264,-0.0263,-0.0117,-0.0111,-0.0128,-0.0178,-0.0178,-0.0177,-0.0177,-0.0176,-0.0647,-0.0647,-0.0706,-0.0731,-0.0769,-0.0822,-0.0722,-0.0629,-0.0532,-0.0486,-0.0291,-0.0287,-0.0265,-0.0256,-0.0275,-0.036,-0.036,-0.036,-0.036,-0.069,-0.0693,-0.0795,-0.0868,-0.0929,-0.0929,-0.0972,-0.079,-0.0549,-0.0398,-0.0396,-0.0368,-0.036,-0.034,-0.0329,-0.0347,-0.0451,-0.0451,-0.0451,-0.0729,-0.0759,-0.0851,-0.0929,-0.1012,-0.1067,-0.112,-0.0905,-0.0527,-0.0451,-0.0371,-0.0374,-0.0326,-0.0316,-0.0276,-0.0262,-0.0287,0,0]}],[{"header":{"parameterUnit":"m.s-1","parameterCategory":2,"la1":30.2992,"la2":30.254,"lo1":-89.0895,"lo2":-89.0443,"dy":0.0025,"dx":0.0025,"nx":19,"ny":19,"refTime":"2026-04-18T09:00:00:Z","depth":"4","parameterNumber":2,"parameterNumberName":"U-component_of_CURRENTS"},"data":[0,0,0,-0.1169,-0.1171,-0.125,-0.1251,-0.1295,-0.1295,0,0,0,0,0,0,0,0,0,0,0,-0.1148,-0.1149,-0.1169,-0.1171,-0.125,-0.1251,-0.1295,-0.1295,0,0,0,0,0,0,0,0,0,0,0,-0.1148,-0.1149,-0.115,-0.1171,-0.125,-0.1251,-0.1295,-0.1249,0,0,0,0,0,0,0,0,0,0,-0.1179,-0.1166,-0.1149,-0.115,-0.1172,-0.125,-0.1251,-0.1248,-0.1252,-0.1243,0,-0.1265,0,-0.1277,-0.1297,-0.1297,0,0,0,-0.1171,-0.1162,-0.1185,-0.115,-0.1173,-0.125,-0.1215,-0.125,-0.1255,-0.1248,-0.1266,-0.1268,-0.1278,-0.1297,-0.1297,-0.1374,-0.1375,0,0,-0.1166,-0.1158,-0.1182,-0.1189,-0.1205,-0.1212,-0.1217,-0.1254,-0.1261,-0.1266,-0.1269,-0.1279,-0.1297,-0.1297,-0.1374,-0.1374,0,0,0,-0.1154,-0.1155,-0.1178,-0.1187,-0.1204,-0.1214,-0.122,-0.126,-0.1269,-0.1269,-0.1279,-0.1297,-0.1298,-0.1373,-0.1374,-0.1404,0,0,0,-0.1151,-0.1148,-0.1177,-0.1171,-0.1204,-0.124,-0.1225,-0.1267,-0.1271,-0.1279,-0.1297,-0.1298,-0.1372,-0.1373,-0.1402,-0.1419,0,0,0,-0.1143,-0.1146,-0.116,-0.1171,-0.1205,-0.124,-0.1251,-0.1268,-0.1277,-0.1297,-0.1298,-0.1372,-0.1373,-0.14,-0.1415,-0.1474,0,0,0,-0.1124,-0.1148,-0.116,-0.1194,-0.1205,-0.1266,-0.1251,-0.13,-0.1323,-0.1297,-0.1372,-0.1374,-0.1399,-0.1413,-0.1471,-0.1307,0,0,0,-0.1139,-0.1149,-0.117,-0.1183,-0.1236,-0.1254,-0.1316,-0.134,-0.1341,-0.1354,-0.1356,-0.1403,-0.1415,-0.1474,-0.1401,0,0,0,0,-0.1165,-0.1179,-0.1199,-0.1236,-0.128,-0.1329,-0.1358,-0.1376,-0.1412,-0.1362,-0.1426,-0.1434,-0.1469,-0.1366,-0.1381,-0.1381,-0.1381,-0.1381,-0.1381,-0.1148,-0.1184,-0.1221,-0.1272,-0.1319,-0.1387,-0.143,-0.1461,-0.1448,-0.1479,-0.1475,-0.1564,-0.1457,-0.1493,-0.1493,-0.1493,-0.1493,-0.1494,-0.1494,-0.1151,-0.1162,-0.1231,-0.1279,-0.1347,-0.1405,-0.1488,-0.1506,-0.157,-0.1535,-0.1568,-0.1426,-0.1497,-0.1496,-0.1496,-0.1496,-0.1495,-0.1495,-0.1495,-0.1109,-0.1119,-0.117,-0.1248,-0.133,-0.1412,-0.1495,-0.1557,-0.1601,-0.1639,-0.1549,-0.1603,-0.1582,-0.1662,-0.1662,-0.1662,-0.1663,-0.1663,-0.1663,-0.103,-0.1085,-0.1121,-0.1214,-0.1266,-0.1358,-0.1504,-0.1565,-0.1639,-0.158,-0.1658,-0.1621,-0.1616,-0.1593,-0.1669,-0.1668,-0.1667,-0.1666,-0.1666,-0.0953,-0.0992,-0.1037,-0.109,-0.121,-0.1272,-0.1438,-0.1533,-0.1597,-0.1597,-0.1557,-0.1561,-0.1541,-0.1538,-0.1511,-0.1566,-0.1564,-0.1562,0,-0.0886,-0.0913,-0.0967,-0.1026,-0.1097,-0.1216,-0.1282,-0.1389,-0.1465,-0.1408,-0.1586,-0.1536,-0.1538,-0.151,-0.1505,-0.147,0,0,0,-0.0831,-0.0862,-0.0873,-0.0956,-0.1032,-0.1147,-0.1291,-0.1294,-0.1442,-0.1477,-0.1517,-0.1529,-0.1629,-0.1685,-0.1665,-0.1658,-0.1621,0,0]},{"header":{"parameterUnit":"m.s-1","parameterCategory":2,"la1":30.2992,"la2":30.254,"lo1":-89.0895,"lo2":-89.0443,"dy":0.0025,"dx":0.0025,"nx":19,"ny":19,"refTime":"2026-04-18T09:00:00:Z","depth":"4","parameterNumber":3,"parameterNumberName":"V-component_of_CURRENTS"},"data":[0,0,0,-0.0025,-0.0023,0.0062,0.0062,0.0185,0.0186,0,0,0,0,0,0,0,0,0,0,0,-0.0055,-0.0055,-0.0025,-0.0023,0.0061,0.0062,0.0185,0.0186,0,0,0,0,0,0,0,0,0,0,0,-0.0055,-0.0055,-0.0055,-0.0023,0.0061,0.0062,0.0185,0.0122,0,0,0,0,0,0,0,0,0,0,0.0039,0.0001,-0.0055,-0.0055,-0.0023,0.0061,0.0062,0.0119,0.0126,0.0146,0,0.0146,0,0.0162,0.0193,0.0194,0,0,0,-0.0005,-0.0005,0.0016,-0.0055,-0.0022,0.0061,0.0028,0.0123,0.013,0.0155,0.0148,0.0152,0.0164,0.0194,0.0194,0.0245,0.0245,0,0,-0.001,-0.0032,0.001,0.002,-0.0016,0.0026,0.0031,0.0127,0.013,0.0148,0.0155,0.0166,0.0195,0.0195,0.0246,0.0245,0,0,0,-0.0035,-0.0036,-0.0017,0.0015,0.0025,0.0028,0.0034,0.0126,0.0131,0.0157,0.0168,0.0195,0.0197,0.0246,0.0246,0.0174,0,0,0,-0.0037,-0.0052,-0.002,-0.0031,0.0023,0.0074,0.003,0.0125,0.0136,0.0167,0.0195,0.0198,0.0246,0.0246,0.0176,0.0136,0,0,0,-0.0056,-0.0053,-0.0049,-0.0032,-0.0004,0.0073,0.0085,0.0128,0.0142,0.0194,0.0198,0.0246,0.0246,0.0179,0.014,0.0129,0,0,0,-0.0073,-0.0086,-0.005,-0.0059,-0.0005,0.0023,0.0084,0.0116,0.0152,0.0196,0.0246,0.0246,0.0179,0.0143,0.0132,0.0082,0,0,0,-0.0101,-0.009,-0.0095,-0.0062,-0.0061,0.0013,0.0027,0.01,0.0154,0.0219,0.0221,0.0176,0.014,0.013,0.0053,0,0,0,0,-0.0112,-0.012,-0.0112,-0.0102,-0.0065,-0.0032,0.0042,0.0081,0.014,0.0171,0.0185,0.0165,0.0161,0.014,0.0243,0.0243,0.0243,0.0243,0.0243,-0.017,-0.0154,-0.0169,-0.0147,-0.0127,-0.0059,-0.0025,0.0043,0.0101,0.0112,0.0114,0.0065,0.004,0.0129,0.0129,0.0129,0.0128,0.0128,0.0128,-0.0222,-0.0232,-0.0217,-0.0228,-0.0191,-0.0171,-0.0086,-0.004,0.0016,0.0064,0.0063,0.0074,0.0121,0.0123,0.0124,0.0124,0.0125,0.0125,0.0126,-0.0257,-0.0262,-0.0272,-0.0292,-0.0293,-0.0242,-0.0236,-0.0152,-0.0061,-0.0059,-0.0052,0.0024,0.0023,-0.005,-0.005,-0.0051,-0.0051,-0.0051,-0.0051,-0.0285,-0.0297,-0.0339,-0.0355,-0.0379,-0.0382,-0.032,-0.0282,-0.0182,-0.0143,-0.0077,0.0006,0.0012,0.0014,-0.0055,-0.0054,-0.0054,-0.0053,-0.0053,-0.0318,-0.0329,-0.0395,-0.0432,-0.0493,-0.0497,-0.0449,-0.0365,-0.0328,-0.0271,-0.0172,-0.0165,-0.014,-0.013,-0.0132,-0.0246,-0.0247,-0.0248,0,-0.0338,-0.0349,-0.0451,-0.053,-0.0589,-0.0569,-0.0549,-0.0485,-0.0356,-0.0358,-0.0313,-0.0206,-0.0199,-0.0172,-0.0165,-0.017,0,0,0,-0.0359,-0.0392,-0.0473,-0.0561,-0.0638,-0.059,-0.0544,-0.0516,-0.0378,-0.0346,-0.0271,-0.0265,-0.0169,-0.0066,-0.001,-0.0002,0.0004,0,0]}]]